{"data":{"norad_id":59414,"epoch":"2026-09-21T15:30:33.230016Z","epoch_age_seconds":66079,"freshness":"FRESH","line1":"1 59414U 24064S   26264.64621794  .00000278  00000+0  19632-4 0  9999","line2":"2 59414  43.0035  22.6604 0001014 239.6996 120.3755 15.27579017139279","mean_motion":15.27579017,"eccentricity":0.0001014,"inclination_deg":43.0035,"raan_deg":22.6604,"arg_perigee_deg":239.6996,"mean_anomaly_deg":120.3755,"bstar":1.9632e-5,"rev_number":13927,"period_min":94.266809374484,"perigee_km":482.35631492826,"apogee_km":483.74776406547,"semimajor_km":6861.1890394969,"source":"CELESTRAK","updated_at":"2026-09-22T09:00:48.917114Z"}}